Regional Weather Roundup
Issued by NWS

Home | Current Version | Previous Version | Graphics & Text | Print | Product List | Glossary On
Versions: 1 2 3 4 5 6 7 8 9 10 11 12 13 14 15 16 17 18 19 20 21 22 23 24 25 26 27 28 29 30 31 32 33 34 35 36 37 38 39 40 41 42 43 44 45 46 47 48 49 50
000
ASUS43 KMKX 250711
RWRWI

WISCONSIN REGIONAL WEATHER ROUNDUP
NATIONAL WEATHER SERVICE MILWAUKEE/SULLIVAN WI
200 AM CDT SUN JUN 25 2017

NOTE: "FAIR" INDICATES FEW OR NO CLOUDS BELOW 12,000 FEET WITH NO
SIGNIFICANT WEATHER AND/OR OBSTRUCTIONS TO VISIBILITY.

WIZ001-002-006>008-014>016-023>028-250800-
NORTHWEST WISCONSIN

CITY           SKY/WX    TMP DP  RH WIND       PRES   REMARKS
SUPERIOR ARPT  NOT AVBL
ASHLAND        MOCLDY    52  49  89 W5        29.98S
HAYWARD        CLOUDY    53  48  83 SW5       30.01S
SIREN          CLEAR     50  48  92 CALM      30.04S
CUMBERLAND     CLEAR     50  46  87 W10       30.03S
RICE LAKE      CLEAR     52  47  84 W5        30.04S
CHETEK         CLEAR     52  48  86 NW8       30.03S
LADYSMITH      CLEAR     52  48  86 W6        30.02S
EAU CLAIRE     CLEAR     51  47  86 W8        30.02F
MENOMONIE      CLEAR     54  47  79 W10       30.04F
NEW RICHMOND   CLEAR     51  48  90 W9        30.06S
OSCEOLA        MOCLDY    53  49  86 W6        30.09S
$$

WIZ003>005-009-010-017-018-250800-
NORTH CENTRAL WISCONSIN

CITY           SKY/WX    TMP DP  RH WIND       PRES   REMARKS
MANITOWISH WTR CLOUDY    51  51 100 NW7       29.96S
ARBOR VITAE    CLOUDY    53  51  93 NW8       29.96R
WOODRUFF       CLOUDY    53  51  93 NW8       29.96R
RHINELANDER    LGT RAIN  51  51 100 W7        29.96F
EAGLE RIVER    RAIN      51  51 100 NW7       29.94S
LAND O LAKES   CLOUDY    52  51  97 N9        29.97R
PHILLIPS       MOCLDY    49  49  97 W3        29.99S
TOMAHAWK       NOT AVBL
MEDFORD        CLEAR     49  47  93 W7        29.99S
MERRILL        MOCLDY    50  49  98 W5        29.98S
$$

WIZ029-030-035-036-043>047-250800-
CENTRAL WISCONSIN

CITY           SKY/WX    TMP DP  RH WIND       PRES   REMARKS
WAUSAU         MOCLDY    51  48  89 W8        29.97S
MOSINEE        CLOUDY    50  46  87 W9        29.99F
MARSHFIELD     CLEAR     49  45  86 W7        30.00S
STEVENS POINT  MOCLDY    50  46  84 W7        30.00S
WAUPACA        CLOUDY    52  49  91 W6        29.99S
WAUTOMA        PTCLDY    50  48  93 W6        30.01F
WISC RAPIDS    PTCLDY    50  47  89 W9        30.02S
CAMP DOUGLAS   CLEAR     48  46  95 W8        30.02F
$$

WIZ011>013-019>022-031-037>040-048>050-250800-
NORTHEAST WISCONSIN

CITY           SKY/WX    TMP DP  RH WIND       PRES   REMARKS
ANTIGO         RAIN      50  49  97 W7        29.97S
SHAWANO        LGT RAIN  55  49  80 W6        29.97R
OCONTO         CLOUDY    53  51  93 CALM      29.95S
STURGEON BAY     N/A     54  51  90 W5          N/A
GREEN BAY      RAIN      53  52  96 W7        29.97S
MANITOWOC      MOCLDY    54  48  80 W6        29.97F
APPLETON       CLOUDY    50  46  87 W8        29.97S
CLINTONVILLE   CLOUDY    54  46  76 W6        29.97S
OSHKOSH        PTCLDY    52  46  80 W6        29.99R
$$

WIZ032>034-041-042-053>061-250800-
SOUTHWEST WISCONSIN

CITY           SKY/WX    TMP DP  RH WIND       PRES   REMARKS
LA CROSSE      CLEAR     60  49  66 NW10      30.05F
SPARTA         CLEAR     44  44  99 CALM      30.05F
VIROQUA        CLEAR     49  48  96 W5        30.06F
BOSCOBEL       CLEAR     52  50  93 SW6       30.08S
PRAIRIE DU CHI CLEAR     52  47  83 CALM      30.09S
PLATTEVILLE    CLEAR     51  51 100 W7        30.09S
$$

WIZ056-057-062-063-064-067-068-250800-
SOUTH CENTRAL WISCONSIN

CITY           SKY/WX    TMP DP  RH WIND       PRES   REMARKS
REEDSBURG      CLEAR     51  49  93 W7        30.04S
BARABOO/DELLS  CLEAR     49  47  93 W6        30.04S
LONE ROCK      CLEAR     52  50  93 W5        30.06S
MINERAL POINT  CLEAR     52  52 100 W7        30.07S
MADISON        CLEAR     52  49  89 VRB5      30.04S
MIDDLETON      CLEAR     51  51  99 W6        30.05S
WATERTOWN      CLEAR     51  50  97 W6        30.03S
MONROE         CLEAR     52  48  87 W10       30.07S
JANESVILLE     CLEAR     52  52 100 W5        30.05F
$$

WIZ051-052-058>065-066-070>072-250800-
SOUTHEAST WISCONSIN

CITY           SKY/WX    TMP DP  RH WIND       PRES   REMARKS
MILWAUKEE      PTCLDY    55  49  80 W12       30.02S
WAUKESHA       CLEAR     50  46  87 W9        30.03F
MILWAUKEE/TIMM PTCLDY    52  45  76 W8        30.03S
RACINE         CLEAR     53  48  83 W8        30.05R
KENOSHA        CLEAR     53  48  83 W7        30.04S
FOND DU LAC    PTCLDY    51  45  79 W5        30.00F
SHEBOYGAN      PTCLDY    52  47  83 W10       29.98S
WEST BEND      PTCLDY    50  46  87 W12       30.01S
JUNEAU         CLEAR     48  46  91 W6        30.04S
$$

LSZ147-162-250800-
LAKE SUPERIOR

STATION/POSITION TIME  TEMP    WIND        PRES    WAVE
                       AIR SEA DIR/SP/G            HT/PER
                 (UTC) (F)     (DEG/KT/KT) (MB)    (FT/S)
W MID LAKE BUOY  0650   44 39  300/  6/  8 1014.5S   1
DEVILS ISLAND    0600   52     310/ 10/ 11 1015.0S
SAXON HARBOR     0640   57     260/  6/ 10 1014.6S
$$

LMZ867-665-643>646-250800-
LAKE MICHIGAN

STATION/POSITION TIME  TEMP    WIND        PRES    WAVE
                       AIR SEA DIR/SP/G            HT/PER
                 (UTC) (F)     (DEG/KT/KT) (MB)    (FT/S)
CHAMBERS ISLAND  0640   55     220/  4/  9 1013.2F
S GREEN BAY BUOY 0700   57     290/ 14/ 16 1013.9
N MID LAKE BUOY  0650   56 57   90/  2/  2 1013.5F   1
NORTHPORT PIER   0640   56     260/  3/  5 1013.2S
KEWAUNEE LAKESHO 0648          260/  5/  8 1013.8F
SHEBOYGAN LAKESH 0700   54     260/ 12/ 14 1015.0S
PORT WASHINGTON  0630   56     270/  9/ 14 1016.6S
ATWATER BUOY     0509   57 56  250/ 14/ 16 1016.4R
MILWAUKEE LAKESH 0650   55     280/ 11/ 14   N/A
S MID LAKE BUOY  0650   59 61  300/ 19/ 21 1016.1R   3/ 5
KENOSHA   LAKESH 0700   56     280/  8/ 14 1016.9
$$

TC  - TEMPERATURE IN CELSIUS
VSB - VISIBILITY IN STATUTE MILES
WCI - WIND CHILL INDEX
HX  - HEAT INDEX





USA.gov is the U.S. government's official web portal to all federal, state and local government web resources and services.